SCP
0 0 0 0 0 0 0 0 0 0 0 0 0 0 0 0 0 0 0 0 0 0 0 0 0 0 0 0 0 0 0 0 0 0 0 0 0 0 0 0 0 0 0 0 0 0 0 0 0
0 0 0 0 0 0 0 0 0 0 0 0 0 0 0 0 0 0 0 0 0 0 0 0 0 0 0 0 0 0 0 0 0 0 0 0 0 0 0 0 0 0 0 0 0 0 0 0 0
0 0 0 0 0 0 0 0 0 0 0 0 0 0 0 0 0 0 0 0 0 0 0 0 0 0 0 0 0 0 0 0 0 0 0 0 0 0 0 0 0 0 0 0 0 0 0 0 0
0 0 0 0 0 0 0 0 0 0 0 0 0 0 0 0 0 0 0 0 0 0 0 0 0 0 0 0 0 0 0 0 0 0 0 0 0 0 0 0 0 0 0 0 0 0 0 0 0
0 0 0 0 0 0 0 0 0 0 0 0 0 0 0 0 0 0 0 0 0 0 0 0 0 0 0 0 0 0 0 0 0 0 0 0 0 0 0 0 0 0 0 0 0 0 0 0 0
0 0 0 0 0 0 0 0 0 0 0 0 0 0 0 0 0 0 0 0 0 0 0 0 0 0 0 0 0 0 0 0 0 0 0 0 0 0 0 0 0 0 0 0 0 0 0 0 0
0 0 0 0 0 0 0 0 0 0 0 0 0 0 0 0 0 0 0 0 0 0 0 0 0 0 0 0 0 0 0 0 0 0 0 0 0 0 0 0 0 0 0 0 0 0 0 0 0
0 0 0 0 0 0 0 0 0 0 0 0 0 0 0 0 0 0 0 0 0 0 0 0 0 0 0 0 0 0 0 0 0 0 0 0 0 0 0 0 0 0 0 0 0 0 0 0 0
0 0 0 0 0 0 0 0 0 0 0 0 0 0 0 0 0 0 0 0 0 0 0 0 0 0 0 0 0 0 0 0 0 0 0 0 0 0 0 0 0 0 0 0 0 0 0 0 0
0 0 0 0 0 0 0 0 0 0 0 0 0 0 0 0 0 0 0 0 0 0 0 0 0 0 0 0 0 0 0 0 0 0 0 0 0 0 0 0 0 0 0 0 0 0 0 0 0
0 0 0 0 0 0 0 0 0 0 0 0 0 0 0 0 0 0 0 0 0 0 0 0 0 0 0 0 0 0 0 0 0 0 0 0 0 0 0 0 0 0 0 0 0 0 0 0 0
0 0 0 0 0 0 0 0 0 0 0 0 0 0 0 0 0 0 0 0 0 0 0 0 0 0 0 0 0 0 0 0 0 0 0 0 0 0 0 0 0 0 0 0 0 0 0 0 0
0 0 0 0 0 0 0 0 0 0 0 0 0 0 0 0 0 0 0 0 0 0 0 0 0 0 0 0 0 0 0 0 0 0 0 0 0 0 0 0 0 0 0 0 0 0 0 0 0
0 0 0 0 0 0 0 0 0 0 0 0 0 0 0 0 0 0 0 0 0 0 0 0 0 0 0 0 0 0 0 0 0 0 0 0 0 0 0 0 0 0 0 0 0 0 0 0 0
0 0 0 0 0 0 0 0 0 0 0 0 0 0 0 0 0 0 0 0 0 0 0 0 0 0 0 0 0 0 0 0 0 0 0 0 0 0 0 0 0 0 0 0 0 0 0 0 0
0 0 0 0 0 0 0 0 0 0 0 0 0 0 0 0 0 0 0 0 0 0 0 0 0 0 0 0 0 0 0 0 0 0 0 0 0 0 0 0 0 0 0 0 0 0 0 0 0
0 0 0 0 0 0 0 0 0 0 0 0 0 0 0 0 0 0 0 0 0 0 0 0 0 0 0 0 0 0 0 0 0 0 0 0 0 0 0 0 0 0 0 0 0 0 0 0 0
0 0 0 0 0 0 0 0 0 0 0 0 0 0 0 0 0 0 0 0 0 0 0 0 0 0 0 0 0 0 0 0 0 0 0 0 0 0 0 0 0 0 0 0 0 0 0 0 0
0 0 0 0 0 0 0 0 0 0 0 0 0 0 0 0 0 0 0 0 0 0 0 0 0 0 0 0 0 0 0 0 0 0 0 0 0 0 0 0 0 0 0 0 0 0 0 0 0
0 0 0 0 0 0 0 0 0 0 0 0 0 0 0 0 0 0 0 0 0 0 0 0 0 0 0 0 0 0 0 0 0 0 0 0 0 1 1 0 0 0 0 0 0 0 0 0 0
0 0 0 0 0 0 0 0 0 0 0 0 0 0 0 0 0 0 0 0 0 0 0 0 0 0 0 0 0 0 0 0 0 0 0 0 0 0 1 1 1 1 0 0 0 0 0 0 0
0 0 0 0 0 0 0 0 0 0 0 0 0 0 0 0 0 0 0 0 0 0 0 0 0 0 0 0 0 0 0 0 0 0 0 0 0 0 0 1 1 1 1 1 0 0 0 0 0
0 0 0 0 0 0 0 0 0 0 0 0 0 0 0 0 0 0 0 0 0 0 0 0 0 0 0 0 0 0 0 0 0 0 0 0 0 0 0 0 1 1 1 1 1 0 0 0 0
0 0 0 0 0 0 0 0 0 0 0 0 0 0 0 0 0 0 0 0 0 0 0 0 0 0 0 0 0 0 0 0 0 0 0 0 0 0 0 0 0 0 0 1 1 1 1 1 0
0 0 0 0 0 0 0 0 0 0 0 0 0 0 0 0 0 0 0 0 0 0 0 0 0 0 0 0 0 0 0 0 0 0 0 0 0 0 0 0 0 0 0 0 1 1 1 1 1
0 0 0 0 0 0 0 0 0 0 0 0 0 0 0 0 0 0 0 0 0 0 0 0 0 0 0 0 0 0 0 0 0 0 0 0 0 0 0 0 0 0 0 0 1 1 1 1 1
0 0 0 0 0 0 0 0 0 0 0 0 0 0 0 0 0 0 0 0 0 0 0 0 0 0 0 0 0 0 0 0 0 0 0 0 0 0 0 0 0 0 0 0 0 1 1 1 1
0 0 0 0 0 0 0 0 0 0 0 0 0 0 0 0 0 0 0 0 0 0 0 0 0 0 0 0 0 0 0 0 0 0 0 0 0 0 0 0 0 0 0 0 0 0 1 1 1
0 0 1 1 0 0 0 0 0 0 0 0 0 0 0 0 0 0 0 0 0 0 0 0 0 0 0 0 0 0 0 0 0 0 0 0 0 0 0 0 0 0 0 0 0 0 0 0 1
0 0 1 1 0 0 0 0 0 0 0 0 0 0 0 0 0 0 0 0 0 0 0 0 0 0 0 0 0 0 0 0 0 0 0 0 0 0 0 0 0 0 0 0 0 0 0 0 0
Wind_Speed
12 5 2 5 7 7 1 1 1 0 0 1 1 4 6 4 3 1 0 5 7 7 6 8 10 12 12 11 11 10 10 10 10 10 11 11 11 11 11 11 10 11 11 11 11 11 11 11 11
6 3 5 6 6 3 2 2 2 2 2 3 2 3 3 1 1 3 3 4 7 8 6 8 10 11 12 11 10 10 10 10 10 10 10 10 10 10 10 10 10 10 10 10 10 10 10 10 10
5 5 6 6 4 4 3 2 3 0 2 3 2 2 2 1 2 4 3 7 7 6 6 7 11 12 12 11 10 10 9 9 10 10 10 10 10 10 9 9 8 8 9 9 9 9 9 9 9
4 6 6 6 2 2 3 2 2 1 1 2 3 2 1 1 3 4 6 8 8 6 6 8 11 12 11 11 10 10 9 9 9 9 10 10 9 9 9 8 8 7 7 8 8 7 7 7 8
5 6 6 3 2 2 2 1 2 1 1 1 3 3 1 3 1 6 9 8 8 7 6 7 10 10 11 11 10 10 9 9 9 9 9 9 9 9 8 8 7 7 6 7 6 6 6 6 6
6 5 5 0 2 3 2 1 2 1 1 2 4 3 1 1 4 6 8 7 7 7 6 6 9 9 9 9 9 9 9 8 8 9 9 8 9 9 8 7 7 6 5 6 5 4 4 4 4
4 4 3 2 1 2 1 1 3 2 2 3 5 4 2 1 4 6 6 6 5 6 6 5 5 6 8 9 8 8 8 7 7 8 8 7 7 7 7 7 6 6 5 5 4 3 2 2 3
4 4 2 2 2 3 1 1 1 4 2 2 4 4 4 4 6 6 5 5 5 5 5 5 5 5 5 5 7 8 8 7 7 7 6 6 6 6 5 5 5 6 5 5 4 3 2 0 2
3 4 3 4 5 3 1 1 0 0 3 1 1 2 1 6 8 7 5 5 6 7 6 6 6 5 5 5 6 7 7 7 6 5 7 5 3 3 3 4 5 5 5 5 5 4 2 1 2
4 4 6 4 4 3 1 2 1 2 1 1 1 0 2 7 9 10 9 10 10 10 9 7 7 6 5 5 4 3 3 4 4 3 4 3 3 2 3 4 5 4 4 5 5 5 2 1 1
4 6 4 3 3 2 2 1 1 3 3 5 5 4 5 6 8 10 10 10 11 9 9 8 8 7 6 4 4 3 2 3 4 5 5 3 3 2 2 1 2 2 3 2 2 2 1 1 1
3 3 3 3 1 2 2 2 1 4 6 3 3 4 7 9 11 12 12 10 8 8 9 9 9 8 8 6 5 4 4 3 4 5 5 4 3 3 3 2 3 2 2 2 2 2 2 3 3
4 3 3 3 2 2 2 3 3 5 6 2 1 4 8 10 11 9 7 6 7 9 10 10 10 10 9 7 6 6 6 5 5 5 5 6 5 4 4 3 3 3 3 3 3 3 4 4 4
5 3 3 3 2 2 3 4 3 8 4 2 3 6 8 10 10 7 7 9 10 11 11 10 11 11 10 9 8 7 7 6 6 6 7 8 6 5 5 5 4 4 4 4 4 5 4 4 4
3 2 3 3 3 3 2 6 8 8 3 4 5 6 7 9 8 10 11 11 11 11 9 10 11 11 11 11 10 7 7 7 7 7 7 8 8 7 6 5 5 5 5 5 4 5 4 4 4
3 3 5 5 4 4 5 11 9 5 5 7 7 7 7 8 9 10 10 10 9 9 9 10 9 11 13 12 10 8 7 8 7 7 7 9 10 9 7 6 6 6 5 5 5 5 4 5 5
4 6 7 5 5 5 7 10 7 3 5 8 8 7 7 8 9 10 10 10 10 10 10 10 10 11 12 12 9 8 7 8 8 7 8 9 10 10 8 7 6 6 5 6 6 5 5 5 6
8 6 6 8 4 5 7 10 9 4 5 8 8 8 7 9 12 10 9 9 9 9 9 9 9 10 9 8 6 6 7 8 8 8 9 10 9 10 10 7 7 6 6 6 6 7 6 5 5
7 7 7 6 4 5 9 12 13 9 6 8 9 9 10 11 11 8 8 7 7 7 8 10 10 10 8 6 7 8 10 9 8 8 9 10 10 10 10 8 8 8 8 8 8 6 7 6 3
6 7 7 3 2 4 6 12 11 10 9 10 11 11 11 10 9 9 8 6 7 8 9 10 11 10 10 9 7 5 5 5 6 6 7 9 10 10 10 10 8 8 8 9 8 8 5 4 5
12 12 9 5 2 2 4 11 9 9 8 9 10 10 10 11 12 11 9 8 7 8 9 9 11 10 11 10 5 3 2 2 3 6 8 10 11 11 11 11 10 9 9 9 9 9 9 7 6
14 8 7 6 4 5 4 10 8 7 8 10 11 10 11 12 12 11 9 8 8 8 7 8 9 9 9 9 7 9 9 9 9 8 7 7 9 10 11 10 10 10 9 10 9 10 9 9 8
6 6 8 8 7 7 6 9 9 4 8 9 10 11 11 11 10 10 9 9 8 6 6 7 7 7 7 8 10 10 11 10 6 4 6 7 7 9 10 10 10 10 9 10 10 9 10 9 9
6 5 3 4 6 15 14 11 12 8 10 8 8 9 9 9 8 8 8 6 6 5 4 4 5 6 6 8 9 10 12 10 7 7 7 6 6 6 9 9 10 10 9 10 10 10 11 10 10
8 7 5 8 10 12 8 11 13 8 9 10 10 9 8 7 6 6 6 5 5 4 3 3 4 5 5 7 8 10 11 10 10 8 7 6 5 6 8 8 9 10 10 10 9 9 10 11 11
13 12 10 9 8 5 6 13 11 6 6 6 7 6 5 5 5 5 5 4 4 3 3 2 3 4 4 5 7 7 8 7 7 8 7 6 6 6 6 7 8 9 9 9 9 9 10 9 11
11 13 9 3 2 4 8 8 9 4 5 6 6 5 6 6 5 4 3 3 3 3 2 2 1 2 2 3 4 5 6 6 6 6 5 5 5 5 6 6 8 8 9 10 9 9 10 9 10
9 9 6 9 8 10 8 8 8 5 8 7 6 6 6 5 3 3 2 2 2 2 2 2 1 1 1 1 2 2 3 4 5 4 5 5 6 5 6 7 8 8 9 9 10 9 9 10 10
10 10 9 7 7 8 8 9 8 10 9 8 8 6 5 4 3 2 2 2 2 2 3 3 3 2 2 2 1 1 2 2 2 3 5 5 5 5 6 7 7 8 9 9 9 10 10 11 11
11 13 13 10 9 7 7 11 4 7 6 6 5 4 3 3 2 2 1 1 2 3 3 3 3 3 3 2 2 2 2 2 2 3 4 4 4 4 5 5 6 7 7 8 9 10 10 11 12
Wind_Direction
330 341 54 54 55 53 69 281 249 235 138 50 84 124 136 144 165 190 99 141 137 140 147 145 143 141 138 136 134 133 130 127 124 120 117 114 112 109 107 104 102 101 100 100 98 96 92 84 78
328 359 47 56 79 78 285 267 224 210 159 129 84 91 100 121 119 129 143 153 141 142 143 146 144 144 143 142 141 138 136 133 130 126 123 120 118 116 114 111 109 108 107 106 103 100 95 84 79
351 47 69 67 90 156 199 226 208 283 135 137 92 59 114 165 174 178 181 147 136 139 140 147 146 149 149 149 148 145 143 139 136 134 133 129 127 123 121 119 116 115 115 114 110 105 97 84 78
31 36 52 67 75 211 218 218 195 129 79 86 117 89 349 349 194 182 145 142 138 140 142 150 152 155 155 154 154 153 152 150 146 143 140 138 135 132 130 128 124 121 121 118 116 109 99 86 78
49 62 55 46 327 294 268 237 168 163 138 98 125 132 256 341 102 134 141 146 149 148 149 156 157 159 160 162 162 162 162 160 158 152 148 146 144 141 138 137 135 131 126 123 123 115 100 86 77
47 58 78 133 291 310 299 175 147 176 153 139 136 143 239 6 135 149 148 152 155 154 154 158 163 163 165 168 169 169 168 168 167 162 158 156 155 153 153 151 149 146 142 139 137 129 109 85 72
86 86 141 184 251 294 283 152 169 171 179 199 161 144 265 225 173 151 144 144 150 156 155 160 165 169 173 174 175 174 172 173 174 170 165 160 161 162 160 159 163 166 164 162 160 153 136 94 63
112 102 122 196 205 250 272 165 179 167 191 140 146 158 226 205 148 131 129 143 160 168 171 170 170 171 173 178 183 180 178 177 177 172 165 161 161 160 163 167 177 182 182 182 182 182 191 258 25
88 89 190 211 200 236 238 146 313 160 123 125 203 216 271 133 131 135 148 172 185 191 191 185 181 180 179 181 187 185 185 185 180 174 171 161 155 155 165 182 190 194 194 199 205 210 228 293 352
98 158 215 213 198 211 209 195 197 100 103 211 259 321 100 134 153 168 182 192 198 201 201 197 193 189 184 188 179 181 183 184 178 172 171 162 162 173 179 205 207 208 207 214 223 225 236 285 337
153 191 219 234 217 196 176 200 187 146 215 218 212 197 152 164 178 191 199 202 206 204 204 203 201 195 190 189 180 182 182 182 185 184 181 174 172 180 185 190 220 224 222 225 249 257 250 256 264
174 223 217 231 211 186 183 177 203 201 223 231 217 171 175 186 197 204 207 209 205 206 211 207 202 201 200 195 192 190 191 191 195 194 187 178 182 195 198 201 206 208 205 211 222 232 245 254 259
203 235 233 244 239 226 198 213 226 244 250 285 206 168 192 202 212 218 219 217 211 215 217 212 205 205 203 200 201 201 203 204 202 197 195 190 192 201 204 209 209 212 208 208 216 226 237 245 252
207 223 254 249 235 231 222 253 231 252 242 232 204 207 214 216 220 223 223 221 219 221 221 213 209 208 204 205 207 207 205 205 204 206 204 198 200 201 203 212 215 218 214 215 217 223 231 240 244
156 185 284 251 217 226 192 269 234 241 221 237 237 234 234 234 231 228 227 226 224 226 223 215 213 208 208 211 211 210 207 205 209 212 208 206 205 204 205 212 218 219 213 217 223 233 235 244 246
135 176 237 243 200 201 175 253 256 240 221 245 251 251 249 247 238 238 237 235 231 226 223 220 213 209 211 213 211 212 210 209 214 213 211 211 210 207 206 214 220 212 205 209 218 223 232 241 244
182 209 220 246 211 186 193 243 258 235 215 245 254 253 252 261 260 247 238 234 232 226 224 221 213 212 213 214 213 212 210 213 215 213 214 214 212 209 210 218 219 205 208 214 220 221 220 238 243
189 198 206 218 222 189 217 245 262 261 231 249 258 260 257 257 259 254 245 236 233 229 223 222 217 218 212 207 209 212 217 220 219 217 217 213 212 210 212 219 216 204 213 220 220 227 222 231 239
178 187 209 222 216 200 232 249 258 258 248 253 256 255 255 256 259 259 252 243 235 229 222 221 218 217 202 197 204 212 221 221 221 221 218 214 213 210 212 219 214 210 219 224 219 221 229 235 212
203 214 224 253 240 216 256 263 260 252 240 235 243 248 250 256 269 265 258 245 232 231 227 225 223 218 208 208 204 202 204 215 219 216 216 215 215 213 213 218 219 214 222 226 221 216 224 224 188
216 217 216 222 311 272 297 283 255 254 238 242 241 243 246 246 255 260 258 250 236 233 229 226 224 219 214 209 193 182 179 208 205 216 221 219 217 216 217 219 220 218 219 228 224 217 223 236 213
228 206 198 207 224 251 211 273 260 241 250 243 244 244 245 247 250 254 256 256 244 239 232 226 225 220 216 203 197 200 208 220 224 222 223 217 214 219 221 223 224 225 225 230 227 219 222 227 234
206 171 188 203 217 250 224 257 268 215 246 248 242 241 246 247 247 252 254 253 253 245 233 227 223 220 212 202 206 209 221 230 233 222 224 223 218 220 223 225 228 232 233 235 232 225 223 225 233
151 138 175 193 213 245 226 230 265 208 219 230 232 235 244 251 252 255 260 263 267 262 243 228 218 223 214 205 207 211 221 228 229 228 229 229 226 223 224 225 229 234 237 237 236 233 229 229 231
167 167 201 213 218 240 193 217 252 215 210 211 223 233 241 249 254 262 270 274 272 275 260 234 217 228 219 208 211 215 222 226 229 233 235 236 235 233 232 226 232 235 238 240 238 236 236 233 233
193 190 202 211 219 247 192 226 250 228 221 224 229 234 249 260 258 263 271 275 279 283 279 253 229 234 226 214 218 218 221 224 232 234 235 235 239 241 238 229 235 238 239 240 239 240 240 239 237
182 208 208 213 239 249 236 258 293 264 251 241 241 241 248 255 262 271 283 291 295 301 300 276 249 256 251 230 225 223 223 226 235 240 238 242 245 247 238 233 237 241 241 241 240 243 242 240 239
185 166 168 202 214 235 244 235 234 212 225 234 235 235 245 255 261 274 290 307 314 315 326 359 24 330 310 282 244 243 237 236 241 242 244 248 251 249 246 241 240 242 242 241 241 245 245 244 243
181 189 193 198 203 211 245 250 217 203 205 210 220 226 238 248 255 261 286 306 334 5 14 15 15 18 11 359 348 339 313 290 271 258 258 258 258 254 252 252 250 248 247 245 246 248 247 247 249
198 202 194 204 215 211 234 256 223 201 206 200 213 228 239 250 258 258 278 333 17 19 19 21 15 19 7 5 14 5 358 358 341 313 303 296 283 275 267 264 260 258 255 252 251 255 253 253 254